Duluth, MN

2:50 PM CST on January 18, 2017 (GMT -0600)
Duluth International

Weather History for KDLH - August, 2013

Change the Weather History Date:

Tuesday, August 6, 2013

  Actual Average Record
Temperature  
Mean Temperature 66 °F 66 °F  
Max Temperature 76 °F 76 °F 94 °F (1930)
Min Temperature 56 °F 56 °F 40 °F (1975)
Degree Days  
Heating Degree Days 0 2  
Month to date heating degree days 8 12  
Since 1 June heating degree days 201 254  
Since 1 July heating degree days 55 75  
Cooling Degree Days 1 3  
Month to date cooling degree days 5 18  
Year to date cooling degree days 200 142  
Since 1 June cooling degree days 199 138  
Growing Degree Days 15 (Base 50)    
Moisture  
Dew Point 57 °F    
Average Humidity 73    
Maximum Humidity 93    
Minimum Humidity 53    
Precipitation  
Precipitation T in 0.12 in 2.05 in (1996)
Month to date precipitation 0.54 0.67  
Year to date precipitation 20.15 17.67  
Snow  
Snow 0.00 in 0.00 in 0.00 in (2002)
Month to date snowfall 0.0 0.0  
Since 1 June snowfall 0.0 0.0  
Since 1 July snowfall 0.0 0.0  
Snow Depth 0.00 in    
Sea Level Pressure  
Sea Level Pressure 29.78 in    
Wind  
Wind Speed 5 mph (WNW)    
Max Wind Speed 14 mph    
Max Gust Speed 20 mph    
Visibility 7 miles    
Events Fog , Rain    
T = Trace of Precipitation, MM = Missing Value Source: NWS Daily Summary

Daily Weather History Graph

Daily Weather History Graph

Search for Another Location

Airport or City:

Trip Planner

Search our weather history database for the weather conditions in past years. The results will help you decide how hot, cold, wet, or windy it might be!

Date:

Astronomy

Aug. 06, 2013 Rise Set
Actual Time 5:55 AM CDT 8:33 PM CDT
Civil Twilight 5:20 AM CDT 9:07 PM CDT
Nautical Twilight 4:36 AM CDT 9:50 PM CDT
Astronomical Twilight 3:46 AM CDT 10:41 PM CDT
Moon 5:50 AM CDT (8/6) 8:02 PM CDT (8/6)
Length of Visible Light 15h 46m
Length of Day
14h 37m
Waning Crescent, 0% of the Moon is Illuminated
Aug 6
Waning Crescent
Aug 6
New
Aug 14
First Quarter
Aug 20
Full
Aug 28
Last Quarter

Hourly Weather History & Observations

Time (CDT) Temp. Dew Point Humidity Pressure Visibility Wind Dir Wind Speed Gust Speed Precip Events Conditions
12:55 AM 63.0 °F 57.9 °F 84% 29.81 in 10.0 mi WNW 3.5 mph - N/A   Mostly Cloudy
1:55 AM 63.0 °F 57.9 °F 84% 29.80 in 10.0 mi WNW 5.8 mph - N/A   Mostly Cloudy
2:55 AM 61.0 °F 55.9 °F 83% 29.78 in 10.0 mi WNW 5.8 mph - N/A   Partly Cloudy
3:55 AM 60.1 °F 55.9 °F 86% 29.78 in 10.0 mi WNW 6.9 mph - N/A   Partly Cloudy
4:55 AM 59.0 °F 55.0 °F 87% 29.78 in 10.0 mi NW 3.5 mph - N/A   Partly Cloudy
5:47 AM 57.2 °F 53.6 °F 88% 29.78 in 2.0 mi WNW 4.6 mph - N/A   Scattered Clouds
5:50 AM 57.2 °F 53.6 °F 88% 29.78 in 1.2 mi NW 4.6 mph - N/A   Mostly Cloudy
5:53 AM 57.2 °F 53.6 °F 88% 29.79 in 0.8 mi NW 5.8 mph - N/A   Mist
5:55 AM 57.0 °F 54.0 °F 89% 29.79 in 0.8 mi NW 5.8 mph - N/A   Mist
6:02 AM 57.2 °F 53.6 °F 88% 29.79 in 0.2 mi NW 4.6 mph - N/A Fog Fog
6:25 AM 57.2 °F 55.4 °F 94% 29.80 in 0.2 mi Calm Calm - N/A Fog Fog
6:55 AM 57.9 °F 55.0 °F 90% 29.80 in 0.2 mi NW 3.5 mph - N/A Fog Fog
7:36 AM 60.8 °F 57.2 °F 88% 29.80 in 0.5 mi WNW 3.5 mph - N/A Fog Fog
7:55 AM 60.1 °F 57.0 °F 90% 29.81 in 0.8 mi NW 4.6 mph - N/A   Overcast
7:57 AM 60.8 °F 57.2 °F 88% 29.81 in 2.0 mi WNW 4.6 mph - N/A   Overcast
8:06 AM 60.8 °F 57.2 °F 88% 29.80 in 4.0 mi WNW 3.5 mph - N/A   Scattered Clouds
8:55 AM 66.9 °F 57.9 °F 73% 29.79 in 10.0 mi Calm Calm - N/A   Partly Cloudy
9:55 AM 70.0 °F 57.0 °F 63% 29.78 in 10.0 mi WNW 3.5 mph - N/A   Scattered Clouds
10:55 AM 71.1 °F 55.9 °F 59% 29.79 in 10.0 mi Calm Calm - N/A   Scattered Clouds
11:55 AM 71.1 °F 55.9 °F 59% 29.80 in 10.0 mi West 8.1 mph - N/A   Scattered Clouds
12:55 PM 70.0 °F 55.9 °F 61% 29.78 in 10.0 mi SW 6.9 mph - 0.00 in Rain Light Rain
1:55 PM 70.0 °F 57.0 °F 63% 29.77 in 10.0 mi SSW 4.6 mph - 0.00 in   Overcast
2:55 PM 73.0 °F 57.9 °F 59% 29.77 in 10.0 mi SSW 6.9 mph - N/A   Mostly Cloudy
3:55 PM 73.9 °F 55.0 °F 52% 29.76 in 10.0 mi WSW 6.9 mph - N/A   Mostly Cloudy
4:55 PM 73.0 °F 57.0 °F 57% 29.74 in 10.0 mi SSW 4.6 mph - N/A   Scattered Clouds
5:09 PM 73.4 °F 57.2 °F 57% 29.75 in 10.0 mi SSW 4.6 mph - N/A   Mostly Cloudy
5:55 PM 73.0 °F 55.9 °F 55% 29.75 in 10.0 mi SW 6.9 mph - N/A   Mostly Cloudy
6:55 PM 72.0 °F 57.9 °F 61% 29.73 in 10.0 mi North 3.5 mph - 0.00 in   Mostly Cloudy
7:55 PM 70.0 °F 57.9 °F 65% 29.76 in 10.0 mi Calm Calm - N/A   Overcast
8:55 PM 68.0 °F 59.0 °F 73% 29.74 in 10.0 mi Calm Calm - N/A   Mostly Cloudy
9:55 PM 66.0 °F 60.1 °F 81% 29.74 in 10.0 mi NNW 5.8 mph - N/A   Overcast
10:55 PM 64.9 °F 59.0 °F 81% 29.75 in 8.0 mi North 8.1 mph - 0.00 in Rain Light Rain
11:55 PM 64.0 °F 57.9 °F 80% 29.77 in 10.0 mi NNW 6.9 mph - 0.00 in   Scattered Clouds